AirNav   Air Wisconsin Up To $57,000 Bonus
 
 1466 users online  

CYQG Windsor Airport
Windsor, Ontario, Canada

GOING TO WINDSOR?


FAA INFORMATION EFFECTIVE 05 NOVEMBER 2020

The information below comes from the U.S. Federal Aviation Administration (FAA). The FAA is not the official source of data for facilities located outside the United States, and THESE RECORDS ARE LIKELY NOT COMPLETE OR CORRECT.

Location

FAA Identifier: CYQG
Lat/Long: 42-16-33.1111N 082-57-27.5347W
42-16.551852N 082-57.458912W
42.2758642,-82.9576485
(estimated)
Elevation: 622 ft. / 190 m (estimated)
Variation: 07W ()
Time zone: UTC -5 (UTC -4 during Daylight Saving Time)
Zip code: 48243

Airport Operations

Airport use: Open to the public
Activation date: 03/2005
Control tower: no
ARTCC: CLEVELAND CENTER
FSS: LONDON FIC FLIGHT SERVICE STATION
Attendance: 
Segmented circle: no

Airport Communications

WX ASOS at DET (8 nm N): PHONE 313-371-9696
WX AWOS-3 at ONZ (14 nm SW): 119.675 (734-692-9686)
WX ASOS at DTW (18 nm W): PHONE 734-955-5015
WX AWOS-3 at VLL (19 nm NW): 119.475 (248-288-4649)

Nearby radio navigation aids

VOR radial/distance  VOR name  Freq  Var
DXOr084/18.6DETROIT VOR/DME113.4006W
CRLr061/26.1CARLETON VOR/DME115.7003W
SVMr109/29.3SALEM VORTAC114.3003W

 
NDB name  Hdg/Dist  Freq  Var  ID
GROSSE ILE047/13.641907WRYS .-. -.-- ...

Airport Services

Runway Information

Runway 7/25

Dimensions: 9000 x 200 ft. / 2743 x 61 m
Surface: asphalt
RUNWAY 7  RUNWAY 25
Latitude: 42-16.404018N42-17.086803N
Longitude: 082-58.209487W082-56.438652W
Elevation: 622.0 ft.608.0 ft.
Traffic pattern: leftleft
Runway heading: 070 magnetic, 063 true250 magnetic, 243 true
Displaced threshold: 901 ft.1143 ft.
Touchdown point: yes, no lightsyes, no lights

Runway 12/30

Dimensions: 5150 x 150 ft. / 1570 x 46 m
Surface: asphalt
RUNWAY 12  RUNWAY 30
Latitude: 42-16.396830N42-16.030400N
Longitude: 082-58.209295W082-57.179820W
Elevation: 622.0 ft.619.0 ft.
Traffic pattern: leftleft
Runway heading: 123 magnetic, 116 true303 magnetic, 296 true
Displaced threshold: 570 ft.321 ft.
Touchdown point: yes, no lightsyes, no lights

Airport Ownership and Management from official FAA records

Ownership: Publicly-owned

Additional Remarks

FOR CD CTC DETROIT APCH AT 800-499-8181.

Instrument Procedures

There are no published instrument procedures at CYQG.

Some nearby airports with instrument procedures:

KDET - Coleman A Young Municipal Airport (8 nm N)
KONZ - Grosse Ile Municipal Airport (14 nm SW)
KDTW - Detroit Metropolitan Wayne County Airport (18 nm W)
KVLL - Oakland/Troy Airport (19 nm NW)
KMTC - Selfridge Air National Guard Base (21 nm N)
 
Loc | Ops | Rwys | IFR | FBO | Links
Com | Nav | Svcs | Stats | Notes
Aerial photo
No photo
 
Airport distance calculator
Flying to Windsor Airport? Find the distance to fly.

From to CYQG

Sunrise and sunset
Times for 23-Nov-2020
 Local
(UTC-5)
 Zulu
(UTC)
Morning civil twilight07:0312:03
Sunrise07:3412:34
Sunset17:0322:03
Evening civil twilight17:3422:34

Current date and time
Zulu (UTC)  23-Nov-2020 16:15:19
Local (UTC-5)  23-Nov-2020 11:15:19
 
METAR
CYQG 231500Z AUTO 28011G17KT 9SM OVC046 04/01 A3021 RMK SLP239
KDET 
8nm N 
231553Z 29012G17KT 10SM BKN021 OVC055 06/01 A3022 RMK AO2 SLP240 T00560006
KONZ 
14nm SW 
231555Z AUTO 29008KT 10SM BKN050 05/03 A3022 RMK AO2 T00480027
CXHA 
15nm S 
231500Z AUTO 27007KT 03/01 RMK AO1 SOG 01 3020 SLP243 T00310009
KDTW 
17nm W 
231553Z 29009KT 7SM FEW030 BKN050 06/01 A3023 RMK AO2 SLP242 T00560011
KVLL 
19nm NW 
231555Z AUTO 29008KT 10SM SCT020 BKN026 OVC050 05/01 A3023 RMK AO2 T00450012
TAF
CYQG 231138Z 2312/2412 24012KT P6SM OVC008 TEMPO 2312/2314 OVC015 FM231400 29012G22KT P6SM BKN025 TEMPO 2314/2321 BKN015 FM232100 28008KT P6SM BKN030 FM240300 33006KT P6SM SCT030 RMK FCST BASED ON AUTO OBS. NXT FCST BY 231800Z
KDET 
8nm N 
231319Z 2313/2412 27012G20KT P6SM SCT025 OVC035 FM240400 33003KT P6SM SKC FM241000 04003KT P6SM BKN200
KDTW 
17nm W 
231315Z 2313/2418 26008KT 4SM BR FEW010 OVC035 FM231400 27012G20KT P6SM SCT025 OVC035 FM231900 29010KT P6SM SCT035 FM240400 33003KT P6SM SKC FM241000 02002KT P6SM BKN200
NOTAMs
Click for the latest NOTAMs
NOTAMs are issued by the DoD/FAA and will open in a separate window not controlled by AirNav.

 

 
 

Would you like to see your business listed on this page?

 If your business provides an interesting product or service to pilots, flight crews, aircraft, or users of the Windsor Airport, you should consider listing it here.  To start the listing process, click on the button below
 
Add a business
 

Other Pages about Windsor Airport

Update a link
 
Copyright © AirNav, LLC. All rights reserved. Privacy Policy  Contact